Weather History for Los Alamos, NM

Change the Weather History Date:

Wednesday, January 29, 2014

  Actual Average Record
Temperature  
Mean Temperature 34 °F -  
Max Temperature 45 °F 41 °F 57 °F (1986)
Min Temperature 23 °F 19 °F -3 °F (1949)
Degree Days  
Heating Degree Days 31    
Moisture  
Dew Point -4 °F    
Average Humidity 20    
Maximum Humidity 33    
Minimum Humidity 11    
Precipitation  
Precipitation 0.00 in - - ()
Sea Level Pressure  
Sea Level Pressure 30.07 in    
Wind  
Wind Speed 2 mph (SSE)    
Max Wind Speed 8 mph    
Max Gust Speed -    
Visibility 10 miles    
Events      
Averages and records for this station are not official NWS values.
T = Trace of Precipitation, MM = Missing Value Source: NWS Daily Summary

Daily Weather History Graph

Daily Weather History Graph

Search for Another Location

Airport:

Trip Planner

Search our weather history database for the weather conditions in past years. The results will help you decide how hot, cold, wet, or windy it might be!

Date:

Astronomy

Jan. 29, 2014 Rise Set
Actual Time 7:07 AM MST 5:29 PM MST
Civil Twilight 6:40 AM MST 5:56 PM MST
Nautical Twilight 6:09 AM MST 6:27 PM MST
Astronomical Twilight 5:39 AM MST 6:57 PM MST
Moon 5:46 AM MST 4:31 PM MST
Length of Visible Light 11h 15m
Length of Day
10h 21m
Waning Crescent, 2% of the Moon is Illuminated
Jan 29
Waning Crescent
Jan 30
New
Feb 6
First Quarter
Feb 14
Full
Feb 22
Last Quarter

Hourly Weather History & Observations

Time (MST) Temp. Windchill Dew Point Humidity Pressure Visibility Wind Dir Wind Speed Gust Speed Precip Events Conditions
12:15 AM 30.4 °F 26.9 °F -3.1 °F 24% 30.15 in 10.0 mi NNW 3.5 mph - N/A   Clear
12:35 AM 30.9 °F - -2.4 °F 24% 30.15 in 10.0 mi Calm Calm - N/A   Clear
12:55 AM 29.8 °F - -3.8 °F 23% 30.15 in 10.0 mi Calm Calm - N/A   Clear
1:15 AM 29.3 °F 25.6 °F -3.3 °F 25% 30.15 in 10.0 mi NNE 3.5 mph - N/A   Clear
1:35 AM 28.0 °F - -3.3 °F 26% 30.16 in 10.0 mi Calm Calm - N/A   Clear
1:55 AM 28.0 °F - -4.0 °F 25% 30.15 in 10.0 mi Calm Calm - N/A   Clear
2:15 AM 27.3 °F 23.4 °F -3.3 °F 27% 30.15 in 10.0 mi North 3.5 mph - N/A   Clear
2:35 AM 26.6 °F - -3.3 °F 27% 30.14 in 10.0 mi Calm Calm - N/A   Clear
2:55 AM 26.6 °F 22.6 °F -3.6 °F 27% 30.13 in 10.0 mi NNE 3.5 mph - N/A   Clear
3:15 AM 25.7 °F 21.5 °F -3.3 °F 28% 30.13 in 10.0 mi NW 3.5 mph - N/A   Clear
3:35 AM 24.8 °F - -2.2 °F 31% 30.13 in 10.0 mi Calm Calm - N/A   Clear
3:55 AM 23.9 °F - -1.7 °F 33% 30.13 in 10.0 mi Calm Calm - N/A   Clear
4:15 AM 23.9 °F - -1.7 °F 33% 30.12 in 10.0 mi Calm Calm - N/A   Clear
4:35 AM 25.9 °F 19.2 °F -5.6 °F 25% 30.12 in 10.0 mi NNE 5.8 mph - N/A   Clear
4:55 AM 25.9 °F 20.3 °F -5.8 °F 25% 30.11 in 10.0 mi NE 4.6 mph - N/A   Clear
5:15 AM 25.0 °F - -5.4 °F 26% 30.12 in 10.0 mi Calm Calm - N/A   Clear
5:35 AM 25.3 °F - -5.4 °F 26% 30.11 in 10.0 mi Calm Calm - N/A   Clear
5:55 AM 25.7 °F - -6.2 °F 25% 30.12 in 10.0 mi Calm Calm - N/A   Clear
6:15 AM 26.4 °F 22.4 °F -7.2 °F 23% 30.12 in 10.0 mi NNW 3.5 mph - N/A   Clear
6:35 AM 26.1 °F 21.9 °F -6.5 °F 24% 30.12 in 10.0 mi North 3.5 mph - N/A   Clear
6:55 AM 25.9 °F - -7.2 °F 23% 30.12 in 10.0 mi Calm Calm - N/A   Clear
7:15 AM 26.2 °F - -7.8 °F 22% 30.12 in 10.0 mi Calm Calm - N/A   Clear
7:35 AM 26.1 °F 21.9 °F -7.1 °F 23% 30.12 in 10.0 mi SW 3.5 mph - N/A   Clear
7:55 AM 27.9 °F - -8.0 °F 21% 30.11 in 10.0 mi Calm Calm - N/A   Clear
8:15 AM 28.0 °F 24.2 °F -8.1 °F 21% 30.12 in 10.0 mi NNE 3.5 mph - N/A   Clear
8:35 AM 28.4 °F - -8.3 °F 20% 30.13 in 10.0 mi Calm Calm - N/A   Clear
8:55 AM 29.3 °F - -7.6 °F 20% 30.13 in 10.0 mi Calm Calm - N/A   Clear
9:15 AM 29.8 °F - -7.2 °F 20% 30.14 in 10.0 mi Calm Calm - N/A   Clear
9:35 AM 31.1 °F - -8.1 °F 18% 30.14 in 10.0 mi Calm Calm - N/A   Clear
9:55 AM 32.9 °F - -8.7 °F 16% 30.14 in 10.0 mi Calm Calm - N/A   Clear
10:15 AM 34.0 °F - -8.3 °F 16% 30.14 in 10.0 mi Calm Calm - N/A   Clear
10:35 AM 35.2 °F 32.4 °F -10.1 °F 14% 30.13 in 10.0 mi East 3.5 mph - N/A   Clear
10:55 AM 35.6 °F 31.7 °F -8.3 °F 15% 30.13 in 10.0 mi East 4.6 mph - N/A   Clear
11:15 AM 36.1 °F 33.5 °F -7.6 °F 15% 30.12 in 10.0 mi East 3.5 mph - N/A   Clear
11:35 AM 36.7 °F 32.9 °F -7.2 °F 15% 30.11 in 10.0 mi East 4.6 mph - N/A   Clear
11:55 AM 36.5 °F - -7.8 °F 15% 30.10 in 10.0 mi Calm Calm - N/A   Clear
12:15 PM 37.8 °F - -8.3 °F 14% 30.09 in 10.0 mi Calm Calm - N/A   Clear
12:35 PM 39.2 °F 37.0 °F -8.7 °F 13% 30.07 in 10.0 mi SSE 3.5 mph - N/A   Clear
12:55 PM 41.0 °F 35.8 °F -8.5 °F 12% 30.06 in 10.0 mi SE 8.1 mph - N/A   Clear
1:15 PM 41.7 °F 38.8 °F -8.0 °F 12% 30.05 in 10.0 mi ESE 4.6 mph - N/A   Clear
1:35 PM 42.4 °F 38.1 °F -8.5 °F 11% 30.04 in 10.0 mi SSE 6.9 mph - N/A   Clear
1:55 PM 42.6 °F 39.0 °F -7.1 °F 12% 30.03 in 10.0 mi SE 5.8 mph - N/A   Clear
2:15 PM 43.2 °F 40.5 °F -6.5 °F 12% 30.02 in 10.0 mi SSE 4.6 mph - N/A   Clear
2:35 PM 43.9 °F 39.9 °F -6.0 °F 12% 30.01 in 10.0 mi ESE 6.9 mph - N/A   Clear
2:55 PM 44.2 °F 40.3 °F -5.4 °F 12% 30.00 in 10.0 mi South 6.9 mph - N/A   Clear
3:15 PM 44.4 °F 41.2 °F -5.1 °F 12% 30.00 in 10.0 mi SE 5.8 mph - N/A   Clear
3:35 PM 44.6 °F 42.2 °F -4.5 °F 13% 30.01 in 10.0 mi ESE 4.6 mph - N/A   Clear
3:55 PM 45.3 °F 44.0 °F -4.7 °F 12% 30.01 in 10.0 mi SSE 3.5 mph - N/A   Clear
4:15 PM 45.0 °F - -4.4 °F 13% 30.01 in 10.0 mi Calm Calm - N/A   Clear
4:35 PM 44.6 °F 43.1 °F -3.8 °F 13% 30.01 in 10.0 mi SE 3.5 mph - N/A   Clear
4:55 PM 44.1 °F - -2.4 °F 14% 30.00 in 10.0 mi Calm Calm - N/A   Clear
5:15 PM 43.5 °F - -1.5 °F 15% 30.01 in 10.0 mi Calm Calm - N/A   Clear
5:35 PM 42.8 °F - -0.9 °F 16% 30.00 in 10.0 mi Calm Calm - N/A   Clear
5:55 PM 41.9 °F - -0.6 °F 17% 30.00 in 10.0 mi Calm Calm - N/A   Clear
6:15 PM 41.7 °F - -0.8 °F 17% 30.00 in 10.0 mi Calm Calm - N/A   Clear
6:35 PM 42.6 °F 40.9 °F -0.6 °F 16% 30.00 in 10.0 mi SW 3.5 mph - N/A   Clear
6:55 PM 40.6 °F 37.5 °F 0.1 °F 18% 30.00 in 10.0 mi SSW 4.6 mph - N/A   Clear
7:15 PM 40.6 °F 36.7 °F 0.5 °F 19% 30.00 in 10.0 mi SSW 5.8 mph - N/A   Clear
7:35 PM 40.3 °F 38.2 °F 0.5 °F 19% 29.99 in 10.0 mi SW 3.5 mph - N/A   Clear
7:55 PM 39.9 °F 36.7 °F 0.9 °F 19% 29.99 in 10.0 mi South 4.6 mph - N/A   Clear
8:15 PM 39.9 °F 36.7 °F 1.6 °F 20% 30.00 in 10.0 mi SW 4.6 mph - N/A   Clear
8:35 PM 39.2 °F 35.0 °F 3.0 °F 22% 30.00 in 10.0 mi SSE 5.8 mph - N/A   Clear
8:55 PM 40.3 °F 38.2 °F 3.7 °F 22% 30.00 in 10.0 mi SE 3.5 mph - N/A   Clear
9:15 PM 39.2 °F - 4.3 °F 23% 29.99 in 10.0 mi Calm Calm - N/A   Clear
9:35 PM 39.9 °F - 4.1 °F 23% 29.99 in 10.0 mi Calm Calm - N/A   Clear
9:50 PM 39.7 °F - 4.1 °F 23% 29.98 in 10.0 mi Calm Calm - N/A   Clear
10:15 PM 38.8 °F - 4.6 °F 24% 29.99 in 10.0 mi Calm Calm - N/A   Clear
10:35 PM 37.8 °F 33.3 °F 5.0 °F 26% 29.99 in 10.0 mi SW 5.8 mph - N/A   Clear
10:55 PM 38.3 °F 35.9 °F 4.6 °F 25% 29.98 in 10.0 mi SSW 3.5 mph - N/A   Clear
11:15 PM 37.8 °F 35.3 °F 4.6 °F 25% 29.98 in 10.0 mi SW 3.5 mph - N/A   Clear
11:35 PM 36.7 °F 32.0 °F 5.2 °F 27% 29.97 in 10.0 mi SSW 5.8 mph - N/A   Clear
11:55 PM 38.7 °F - 4.6 °F 24% 29.96 in 10.0 mi Calm Calm - N/A   Clear